FW5801 Weather Reports


Display with metric or nautical units.
time (UTC)temp
F
wind
direction
speed
MPH
gust
MPH
rain 1hr
in
rain 24hr
in
rain mn
in
humidity
%
barometer
mb
20260509192058 69 238 7.0 19.0 0.00 0.27 0.26 64 1007.9
20260509191608 69 230 10.0 19.0 0.00 0.27 0.26 62 1007.8
20260509191101 69 190 8.0 14.0 0.00 0.27 0.26 61 1007.8
20260509190604 69 215 7.0 18.0 0.00 0.27 0.26 63 1008.0
20260509190100 69 215 10.0 18.0 0.00 0.27 0.26 62 1007.9
20260509185600 69 261 8.0 18.0 0.00 0.27 0.26 62 1008.0
20260509185100 69 202 7.0 18.0 0.00 0.27 0.26 63 1008.0
20260509184611 69 219 7.0 17.0 0.00 0.27 0.26 63 1008.1
20260509184058 68 281 6.0 17.0 0.00 0.27 0.26 64 1008.2
20260509183559 68 267 7.0 15.0 0.00 0.27 0.26 64 1008.2
20260509183102 68 203 6.0 15.0 0.00 0.27 0.26 63 1008.3
20260509182600 68 194 6.0 15.0 0.00 0.27 0.26 63 1008.2
20260509182100 68 262 7.0 15.0 0.00 0.27 0.26 65 1008.2
20260509181607 68 215 5.0 13.0 0.00 0.27 0.26 65 1008.3
20260509181101 67 218 5.0 14.0 0.00 0.27 0.26 68 1008.3
20260509180601 67 219 4.0 16.0 0.00 0.27 0.26 68 1008.3
20260509180117 67 259 5.0 16.0 0.00 0.27 0.26 65 1008.3
20260509175600 67 210 6.0 16.0 0.00 0.27 0.26 65 1008.3
20260509175100 67 322 7.0 16.0 0.00 0.27 0.26 67 1008.3
20260509174612 67 263 7.0 16.0 0.00 0.27 0.26 68 1008.4
20260509174100 66 253 10.0 16.0 0.00 0.27 0.26 68 1008.5
20260509173634 67 252 9.0 16.0 0.00 0.27 0.26 65 1008.5
20260509173107 67 262 7.0 16.0 0.00 0.27 0.26 69 1008.5
20260509172600 66 244 7.0 16.0 0.00 0.27 0.26 67 1008.5
20260509172100 66 298 6.0 16.0 0.00 0.27 0.26 70 1008.6
20260509171608 66 238 8.0 16.0 0.00 0.27 0.26 69 1008.6
20260509171100 65 221 10.0 16.0 0.00 0.27 0.26 68 1008.5
20260509170600 65 205 7.0 16.0 0.00 0.27 0.26 68 1008.7
20260509170106 65 250 7.0 16.0 0.00 0.27 0.26 67 1008.6
20260509165600 65 244 7.0 16.0 0.00 0.27 0.26 70 1008.7
20260509165100 64 249 7.0 14.0 0.00 0.27 0.26 72 1008.6
20260509164600 64 198 8.0 14.0 0.00 0.27 0.26 72 1008.6
20260509164103 64 237 5.0 15.0 0.00 0.27 0.26 72 1008.6
20260509163559 64 205 5.0 15.0 0.00 0.27 0.26 73 1008.8
20260509163104 64 246 9.0 15.0 0.00 0.27 0.26 70 1008.8
20260509162603 65 271 4.0 15.0 0.00 0.27 0.26 73 1008.6
20260509162059 64 250 6.0 15.0 0.00 0.27 0.26 73 1008.7
20260509161605 64 203 5.0 12.0 0.00 0.27 0.26 73 1008.7
20260509161058 63 252 5.0 13.0 0.00 0.27 0.26 75 1008.6
20260509160600 63 217 4.0 13.0 0.00 0.27 0.26 74 1008.6
20260509155601 62 256 6.0 13.0 0.00 0.27 0.26 74 1008.6
20260509155059 63 224 4.0 15.0 0.00 0.27 0.26 74 1008.5
20260509154600 63 260 5.0 15.0 0.00 0.27 0.26 76 1008.5
20260509154100 62 232 7.0 15.0 0.00 0.27 0.26 75 1008.5
20260509153559 62 199 6.0 15.0 0.00 0.27 0.26 78 1008.5
20260509153105 62 236 6.0 15.0 0.00 0.27 0.26 77 1008.4
20260509152559 62 261 5.0 13.0 0.00 0.27 0.26 79 1008.3
20260509152100 61 187 6.0 13.0 0.00 0.27 0.26 79 1008.5
20260509151600 60 231 8.0 14.0 0.00 0.27 0.26 80 1008.5
20260509151100 60 254 6.0 14.0 0.00 0.27 0.26 81 1008.4
20260509150600 60 217 7.0 14.0 0.00 0.27 0.26 82 1008.4
20260509150058 59 261 6.0 14.0 0.00 0.27 0.26 83 1008.3
20260509145559 58 244 6.0 14.0 0.00 0.27 0.26 82 1008.3
20260509145100 58 201 6.0 14.0 0.00 0.27 0.26 82 1008.3
20260509144559 59 240 6.0 14.0 0.00 0.27 0.26 81 1008.1
20260509144101 59 233 5.0 15.0 0.00 0.27 0.26 83 1008.1
20260509143600 59 223 7.0 15.0 0.00 0.27 0.26 81 1008.0
20260509143059 59 190 7.0 14.0 0.00 0.27 0.26 83 1008.1
20260509142559 59 184 6.0 13.0 0.00 0.27 0.26 83 1008.1
20260509142059 59 246 7.0 12.0 0.00 0.27 0.26 84 1008.0
20260509141605 58 211 5.0 11.0 0.00 0.27 0.26 86 1008.0
20260509141101 58 252 3.0 14.0 0.00 0.27 0.26 87 1008.0
20260509140600 57 247 5.0 14.0 0.00 0.27 0.26 86 1008.1
20260509140108 57 360 6.0 14.0 0.00 0.27 0.26 87 1008.2
20260509135600 56 360 5.0 11.0 0.00 0.27 0.26 88 1008.2
20260509135100 56 244 5.0 11.0 0.00 0.27 0.26 89 1008.2
20260509134600 56 360 6.0 11.0 0.00 0.27 0.26 90 1008.2
20260509134100 56 194 3.0 8.0 0.00 0.27 0.26 91 1008.3
20260509133559 55 197 2.0 9.0 0.00 0.27 0.26 91 1008.5
20260509133058 55 221 4.0 9.0 0.00 0.27 0.26 91 1008.5
20260509132600 55 248 3.0 8.0 0.00 0.27 0.26 91 1008.7
20260509132059 55 209 3.0 9.0 0.00 0.27 0.26 91 1008.8
20260509131558 55 0 2.0 9.0 0.00 0.27 0.26 92 1008.5
20260509131059 55 0 2.0 7.0 0.00 0.27 0.26 92 1008.3
20260509130603 55 0 2.0 7.0 0.01 0.27 0.26 92 1008.1
20260509130059 54 241 0.0 5.0 0.01 0.27 0.26 92 1008.2
20260509125601 54 232 2.0 7.0 0.01 0.27 0.26 92 1008.1
20260509125059 54 244 2.0 7.0 0.01 0.27 0.26 92 1008.1
20260509124559 54 227 0.0 4.0 0.01 0.27 0.26 92 1008.1
20260509124059 54 0 0.0 4.0 0.01 0.27 0.26 92 1008.1
20260509123559 54 0 0.0 7.0 0.01 0.27 0.26 92 1008.1
20260509123100 53 0 1.0 9.0 0.01 0.27 0.26 92 1008.1
20260509122558 53 290 2.0 14.0 0.01 0.27 0.26 92 1008.2
20260509122058 53 178 4.0 14.0 0.01 0.27 0.26 92 1008.3
20260509121603 53 130 6.0 14.0 0.01 0.27 0.26 92 1007.9
20260509121100 53 111 6.0 11.0 0.01 0.27 0.26 92 1007.8
20260509120600 53 114 6.0 14.0 0.01 0.26 0.25 92 1007.8
20260509120058 53 127 5.0 14.0 0.01 0.26 0.25 92 1007.8
20260509115559 53 129 4.0 14.0 0.01 0.26 0.25 92 1007.7
20260509115059 53 115 4.0 12.0 0.01 0.26 0.25 92 1007.6
20260509114600 53 103 4.0 10.0 0.01 0.26 0.25 92 1007.9
20260509114059 53 119 3.0 7.0 0.01 0.26 0.25 92 1008.0
20260509113559 53 261 1.0 10.0 0.01 0.26 0.25 92 1008.2
20260509113104 53 244 1.0 12.0 0.01 0.26 0.25 92 1008.1
20260509112559 53 183 2.0 12.0 0.01 0.26 0.25 92 1007.8
20260509112100 53 228 5.0 12.0 0.01 0.26 0.25 92 1007.7
20260509111602 53 208 3.0 11.0 0.01 0.26 0.25 92 1007.7
20260509111059 53 198 5.0 11.0 0.01 0.26 0.25 92 1007.7
20260509110600 53 178 5.0 10.0 0.01 0.25 0.24 91 1007.7
20260509110100 52 208 5.0 10.0 0.01 0.25 0.24 91 1007.7
20260509105559 52 185 5.0 10.0 0.02 0.25 0.24 91 1007.9
20260509105059 52 212 4.0 12.0 0.02 0.25 0.24 91 1008.0
20260509104605 52 200 6.0 12.0 0.03 0.25 0.24 91 1008.0
20260509104059 52 212 4.0 11.0 0.03 0.25 0.24 91 1008.2
20260509103559 52 252 4.0 14.0 0.03 0.25 0.24 91 1008.2
20260509103109 53 247 5.0 14.0 0.04 0.25 0.24 91 1008.2
20260509102559 53 234 6.0 16.0 0.04 0.25 0.24 91 1008.2
20260509102059 53 204 7.0 16.0 0.05 0.25 0.24 91 1008.3
20260509101627 53 225 7.0 15.0 0.05 0.25 0.24 91 1008.2
20260509101059 53 252 7.0 14.0 0.05 0.25 0.24 91 1008.2
20260509100559 53 222 5.0 12.0 0.04 0.24 0.23 91 1007.9
20260509095602 53 182 6.0 14.0 0.04 0.23 0.22 91 1008.1
20260509095100 53 218 6.0 14.0 0.05 0.23 0.22 91 1008.1
20260509094604 53 182 7.0 16.0 0.04 0.22 0.21 91 1008.2
20260509094059 53 217 5.0 16.0 0.04 0.22 0.21 91 1008.2
20260509093600 53 216 7.0 15.0 0.05 0.22 0.21 91 1008.2
20260509093059 53 209 8.0 15.0 0.04 0.21 0.20 91 1008.3
20260509092600 53 210 5.0 15.0 0.04 0.21 0.20 91 1008.3
20260509092103 53 194 5.0 16.0 0.04 0.20 0.19 91 1008.5
20260509091559 53 264 8.0 16.0 0.04 0.20 0.19 91 1008.5
20260509091059 53 204 6.0 17.0 0.05 0.20 0.19 90 1008.6
20260509090556 53 255 7.0 17.0 0.06 0.20 0.19 90 1008.7
20260509090108 53 261 6.0 15.0 0.05 0.19 0.18 90 1008.7
20260509085559 53 246 5.0 14.0 0.06 0.19 0.18 90 1008.6
20260509085059 53 271 7.0 16.0 0.05 0.18 0.17 90 1008.5
20260509084604 53 272 6.0 16.0 0.05 0.18 0.17 90 1008.6
20260509084059 53 290 6.0 15.0 0.05 0.18 0.17 90 1008.5
20260509083602 53 246 7.0 18.0 0.04 0.17 0.16 90 1008.4
20260509083116 53 236 9.0 18.0 0.05 0.17 0.16 90 1008.4
20260509082559 53 251 8.0 17.0 0.04 0.16 0.15 90 1008.4
20260509082104 53 251 9.0 16.0 0.05 0.16 0.15 90 1008.5
20260509081559 53 196 6.0 15.0 0.06 0.16 0.15 90 1008.5
20260509081059 53 243 9.0 15.0 0.05 0.15 0.14 90 1008.5
20260509080600 53 213 7.0 14.0 0.05 0.14 0.13 90 1008.7
20260509080100 53 235 6.0 14.0 0.06 0.14 0.13 90 1008.6
20260509075558 53 229 7.0 14.0 0.06 0.13 0.12 90 1008.8
20260509075059 53 264 6.0 13.0 0.07 0.13 0.12 90 1008.8
20260509074614 53 267 7.0 14.0 0.07 0.13 0.12 91 1008.7
20260509074102 53 253 5.0 14.0 0.07 0.13 0.12 91 1008.9
20260509073559 53 213 5.0 16.0 0.07 0.13 0.12 91 1008.9
20260509073109 53 278 5.0 16.0 0.07 0.12 0.11 91 1008.9
20260509072558 53 255 5.0 11.0 0.07 0.12 0.11 91 1008.9
20260509072056 53 240 4.0 10.0 0.07 0.11 0.10 91 1009.0
20260509071602 53 227 2.0 11.0 0.06 0.10 0.09 91 1009.0
20260509071059 53 231 5.0 14.0 0.06 0.10 0.09 91 1009.0
20260509070559 53 250 7.0 14.0 0.06 0.09 0.08 91 1009.2
20260509070101 53 223 5.0 14.0 0.05 0.08 0.07 91 1009.2
20260509065557 53 249 5.0 10.0 0.04 0.07 0.06 91 1009.1
20260509065059 53 234 2.0 9.0 0.03 0.06 0.05 90 1009.1
20260509064604 53 254 3.0 8.0 0.04 0.06 0.05 90 1009.3
20260509064100 53 200 2.0 8.0 0.04 0.06 0.05 90 1009.2
20260509063601 53 210 1.0 7.0 0.04 0.06 0.05 90 1009.1
20260509063106 53 244 2.0 8.0 0.03 0.05 0.04 90 1009.2
20260509062559 53 249 2.0 8.0 0.03 0.05 0.04 90 1009.3
20260509062059 53 244 2.0 8.0 0.02 0.04 0.03 90 1009.4
20260509061603 53 249 2.0 8.0 0.02 0.04 0.03 90 1009.4
20260509061059 53 268 3.0 8.0 0.02 0.04 0.03 90 1009.3
20260509060559 53 270 3.0 8.0 0.01 0.03 0.02 89 1009.4
20260509060118 53 266 3.0 8.0 0.01 0.03 0.02 90 1009.6
20260509055558 53 237 3.0 8.0 0.02 0.03 0.02 89 1009.5
20260509055055 53 262 1.0 9.0 0.02 0.03 0.02 89 1009.6
20260509054559 53 250 3.0 9.0 0.01 0.02 0.01 89 1009.8
20260509054059 53 251 2.0 9.0 0.01 0.02 0.01 89 1009.7
20260509053559 53 268 3.0 9.0 0.01 0.02 0.01 89 1009.8
20260509053117 53 238 4.0 10.0 0.01 0.02 0.01 89 1009.8
20260509052603 53 239 2.0 10.0 0.01 0.02 0.01 89 1009.8
20260509052100 53 261 2.0 8.0 0.01 0.02 0.01 88 1009.8
20260509051610 53 250 4.0 8.0 0.01 0.02 0.01 88 1010.0
20260509051059 53 273 3.0 8.0 0.01 0.02 0.01 88 1010.0
20260509050559 53 0 3.0 10.0 0.01 0.02 0.01 88 1009.9
20260509050104 53 248 3.0 10.0 0.01 0.02 0.01 88 1009.9
20260509045605 53 263 4.0 10.0 0.00 0.01 0.00 88 1010.0
20260509045059 53 251 4.0 9.0 0.00 0.01 0.00 88 1009.9
20260509044604 53 265 1.0 7.0 0.00 0.01 0.00 88 1009.8
20260509044058 53 266 1.0 7.0 0.01 0.01 0.00 88 1009.9
20260509043559 53 264 1.0 4.0 0.01 0.01 0.00 88 1009.9
20260509043100 53 280 1.0 3.0 0.01 0.01 0.00 87 1009.8
20260509042559 53 0 0.0 4.0 0.01 0.01 0.00 87 1009.8
20260509042056 53 0 1.0 4.0 0.01 0.01 0.00 87 1009.7
20260509041559 53 0 0.0 4.0 0.01 0.01 0.00 87 1009.7
20260509041059 53 308 1.0 5.0 0.01 0.01 0.00 86 1009.8
20260509040559 53 313 0.0 5.0 0.01 0.01 0.00 86 1009.9
20260509040109 53 316 1.0 5.0 0.01 0.01 0.00 86 1009.9
20260509035559 53 323 0.0 4.0 0.01 0.01 0.01 85 1010.1
20260509035057 53 0 0.0 1.0 0.01 0.01 0.01 85 1010.2
20260509034558 54 0 0.0 1.0 0.01 0.01 0.01 85 1010.3
20260509034058 54 0 0.0 1.0 0.00 0.00 0.00 84 1010.4
20260509033558 54 0 0.0 1.0 0.00 0.00 0.00 84 1010.4
20260509033123 54 0 0.0 1.0 0.00 0.00 0.00 84 1010.6
20260509032557 54 0 0.0 2.0 0.00 0.00 0.00 84 1010.6
20260509032057 54 0 0.0 2.0 0.00 0.00 0.00 84 1010.6
20260509031558 54 0 0.0 2.0 0.00 0.00 0.00 84 1010.6
20260509031058 54 0 0.0 0.0 0.00 0.00 0.00 83 1010.7
20260509030558 54 0 0.0 0.0 0.00 0.00 0.00 83 1010.9
20260509030059 54 0 0.0 0.0 0.00 0.00 0.00 83 1010.9
20260509025558 54 0 0.0 0.0 0.00 0.00 0.00 83 1011.0
20260509025057 54 0 0.0 0.0 0.00 0.00 0.00 82 1010.9
20260509024608 54 0 0.0 0.0 0.00 0.00 0.00 82 1010.9
20260509024057 55 0 0.0 0.0 0.00 0.00 0.00 82 1010.7
20260509023600 55 0 0.0 0.0 0.00 0.00 0.00 81 1010.8
20260509023058 55 0 0.0 0.0 0.00 0.00 0.00 81 1010.7
20260509022559 55 0 0.0 1.0 0.00 0.00 0.00 81 1010.7
20260509022059 55 0 0.0 1.0 0.00 0.00 0.00 80 1010.9
20260509021559 55 0 0.0 2.0 0.00 0.00 0.00 80 1010.9
20260509021059 55 0 0.0 3.0 0.00 0.00 0.00 79 1011.0
20260509020557 56 0 0.0 5.0 0.00 0.00 0.00 79 1011.0
20260509020111 56 0 0.0 5.0 0.00 0.00 0.00 78 1010.9
20260509015601 56 330 1.0 8.0 0.00 0.00 0.00 78 1010.7
20260509015100 56 331 3.0 8.0 0.00 0.00 0.00 77 1010.7
20260509014601 56 325 3.0 6.0 0.00 0.00 0.00 77 1010.6
20260509014057 56 323 3.0 5.0 0.00 0.00 0.00 76 1010.5
20260509013558 56 333 1.0 4.0 0.00 0.00 0.00 76 1010.5
20260509013103 56 319 1.0 3.0 0.00 0.00 0.00 77 1010.4
20260509012558 57 294 0.0 3.0 0.00 0.00 0.00 79 1010.4
20260509012100 57 0 0.0 0.0 0.00 0.00 0.00 78 1010.3
20260509011604 57 0 0.0 1.0 0.00 0.00 0.00 77 1010.1
20260509011104 57 0 0.0 1.0 0.00 0.00 0.00 76 1010.1
20260509010603 57 0 0.0 1.0 0.00 0.00 0.00 75 1009.9
20260509005601 58 0 0.0 1.0 0.00 0.00 0.00 72 1010.2
20260509005104 58 0 0.0 2.0 0.00 0.00 0.00 71 1010.1
20260509004600 58 265 0.0 3.0 0.00 0.00 0.00 71 1010.1
20260509004100 58 0 1.0 3.0 0.00 0.00 0.00 70 1010.1
20260509003601 58 0 0.0 3.0 0.00 0.00 0.00 70 1010.1
20260509003103 58 0 0.0 0.0 0.00 0.00 0.00 71 1010.0
20260509002603 58 0 0.0 0.0 0.00 0.00 0.00 70 1010.0
20260509002100 58 0 0.0 1.0 0.00 0.00 0.00 71 1010.0
20260509001600 58 0 0.0 1.0 0.00 0.00 0.00 70 1009.9
20260509001101 58 0 0.0 0.0 0.00 0.00 0.00 70 1010.0
20260509000600 59 0 0.0 0.0 0.00 0.00 0.00 71 1010.0
20260509000104 59 0 0.0 0.0 0.00 0.00 0.00 70 1010.0
20260508235600 59 0 0.0 0.0 0.00 0.00 0.00 68 1009.9
20260508235103 59 0 0.0 0.0 0.00 0.00 0.00 69 1010.0
20260508234605 60 0 0.0 0.0 0.00 0.00 0.00 69 1010.0
20260508234100 60 0 0.0 0.0 0.00 0.00 0.00 68 1009.9
20260508233600 60 0 0.0 2.0 0.00 0.00 0.00 67 1010.0
20260508233108 60 0 0.0 2.0 0.00 0.00 0.00 65 1009.9
20260508232602 61 0 0.0 1.0 0.00 0.00 0.00 65 1010.0
20260508232102 61 0 0.0 1.0 0.00 0.00 0.00 64 1009.9
20260508231603 61 0 0.0 1.0 0.00 0.00 0.00 63 1009.9
20260508231101 61 0 0.0 0.0 0.00 0.00 0.00 62 1009.8
20260508230559 61 0 0.0 1.0 0.00 0.00 0.00 62 1009.8
20260508230058 62 0 0.0 2.0 0.00 0.00 0.00 62 1009.8
20260508225557 62 0 0.0 2.0 0.00 0.00 0.00 62 1009.7
20260508225057 62 0 0.0 2.0 0.00 0.00 0.00 61 1009.9
20260508224558 62 0 0.0 1.0 0.00 0.00 0.00 61 1009.9
20260508224057 62 0 0.0 3.0 0.00 0.00 0.00 61 1009.9
20260508223557 63 0 0.0 4.0 0.00 0.00 0.00 61 1009.8
20260508223057 63 0 0.0 4.0 0.00 0.00 0.00 61 1009.8
20260508222559 63 0 1.0 6.0 0.00 0.00 0.00 60 1009.9
20260508222058 63 0 0.0 6.0 0.00 0.00 0.00 60 1009.8
20260508221559 63 257 1.0 6.0 0.00 0.00 0.00 60 1009.9
20260508221057 63 265 2.0 5.0 0.00 0.00 0.00 60 1009.8
20260508220602 63 269 1.0 5.0 0.00 0.00 0.00 59 1009.7
20260508220057 63 265 1.0 7.0 0.00 0.00 0.00 59 1009.7
20260508215556 63 269 1.0 7.0 0.00 0.00 0.00 59 1009.5
20260508215058 63 250 1.0 8.0 0.00 0.00 0.00 59 1009.6
20260508214558 63 262 1.0 8.0 0.00 0.00 0.00 58 1009.5
20260508214058 64 259 2.0 8.0 0.00 0.00 0.00 57 1009.7
20260508213555 64 251 3.0 8.0 0.00 0.00 0.00 57 1009.8
20260508213059 64 267 3.0 8.0 0.00 0.00 0.00 56 1009.7
20260508212555 64 271 4.0 8.0 0.00 0.00 0.00 56 1009.8
20260508212057 64 263 3.0 10.0 0.00 0.00 0.00 56 1009.8
20260508211602 64 277 4.0 14.0 0.00 0.00 0.00 55 1009.8
20260508211059 64 227 4.0 15.0 0.00 0.00 0.00 55 1009.8
20260508210556 64 227 6.0 15.0 0.00 0.00 0.00 53 1009.8
20260508210059 64 239 6.0 15.0 0.00 0.00 0.00 54 1009.9
20260508205555 64 255 4.0 11.0 0.00 0.00 0.00 54 1009.8
20260508205059 65 235 4.0 14.0 0.00 0.00 0.00 53 1010.0
20260508204556 64 263 3.0 15.0 0.00 0.00 0.00 53 1010.0
20260508204100 65 250 6.0 15.0 0.00 0.00 0.00 53 1009.9
20260508203555 65 261 8.0 18.0 0.00 0.00 0.00 53 1010.0
20260508203055 65 246 8.0 18.0 0.00 0.00 0.00 51 1010.0
20260508202601 65 271 7.0 17.0 0.00 0.00 0.00 51 1010.0
20260508202058 65 263 8.0 19.0 0.00 0.00 0.00 50 1010.1
20260508201557 66 250 9.0 19.0 0.00 0.00 0.00 50 1010.2
20260508201058 66 234 10.0 19.0 0.00 0.00 0.00 49 1010.3
20260508200556 66 236 5.0 15.0 0.00 0.00 0.00 51 1010.3
20260508200058 66 226 5.0 15.0 0.00 0.00 0.00 52 1010.2
20260508195555 66 284 6.0 15.0 0.00 0.00 0.00 51 1010.4
20260508195056 66 281 5.0 16.0 0.00 0.00 0.00 53 1010.4
20260508194606 65 259 4.0 16.0 0.00 0.00 0.00 54 1010.6
20260508194058 65 246 8.0 17.0 0.00 0.00 0.00 52 1010.7
20260508193558 65 218 9.0 21.0 0.00 0.00 0.00 52 1010.8
20260508193119 65 238 8.0 21.0 0.00 0.00 0.00 52 1011.0
20260508192555 65 275 7.0 17.0 0.00 0.00 0.00 53 1011.0